Time,TemperatureF,DewpointF,PressureIn,WindDirection,WindDirectionDegrees,WindSpeedMPH,WindSpeedGustMPH,Humidity,HourlyPrecipIn,Conditions,Clouds,dailyrainin,SoftwareType,DateUTC
2013-03-05 00:00:00,28.4,22.4,29.76,WNW,285,1.0,3.0,78,0.00,,,0.00,WUHU216DAVISVP2,2013-03-05 05:00:00,
2013-03-05 00:05:00,28.3,22.3,29.76,West,262,1.4,3.0,78,0.00,,,0.00,WUHU216DAVISVP2,2013-03-05 05:05:00,
2013-03-05 00:10:00,28.3,22.3,29.77,NNW,335,2.0,3.0,78,0.00,,,0.00,WUHU216DAVISVP2,2013-03-05 05:10:00,
2013-03-05 00:15:00,28.3,22.6,29.77,NNW,328,0.0,5.0,79,0.00,,,0.00,WUHU216DAVISVP2,2013-03-05 05:15:00,
2013-03-05 00:20:00,28.3,22.6,29.77,NNW,341,2.4,5.0,79,0.00,,,0.00,WUHU216DAVISVP2,2013-03-05 05:20:00,
2013-03-05 00:25:00,28.3,22.3,29.77,NW,311,1.0,5.0,78,0.00,,,0.00,WUHU216DAVISVP2,2013-03-05 05:25:00,
2013-03-05 00:30:00,28.3,22.6,29.77,NW,312,1.0,4.0,79,0.00,,,0.00,WUHU216DAVISVP2,2013-03-05 05:30:00,
2013-03-05 00:35:00,28.2,22.2,29.77,WNW,284,1.6,4.0,78,0.00,,,0.00,WUHU216DAVISVP2,2013-03-05 05:35:00,
2013-03-05 00:40:00,28.2,22.2,29.77,SW,233,1.9,4.0,78,0.00,,,0.00,WUHU216DAVISVP2,2013-03-05 05:40:00,
2013-03-05 00:45:00,28.1,22.1,29.78,WSW,248,1.0,3.0,78,0.00,,,0.00,WUHU216DAVISVP2,2013-03-05 05:45:00,
2013-03-05 00:50:00,28.1,22.1,29.77,WSW,248,1.6,3.0,78,0.00,,,0.00,WUHU216DAVISVP2,2013-03-05 05:50:00,
2013-03-05 00:55:00,28.0,22.0,29.78,SW,225,1.3,3.0,78,0.00,,,0.00,WUHU216DAVISVP2,2013-03-05 05:55:00,
2013-03-05 01:00:00,27.9,21.9,29.78,SW,234,2.0,3.0,78,0.00,,,0.00,WUHU216DAVISVP2,2013-03-05 06:00:00,
2013-03-05 01:05:00,27.8,21.8,29.78,SW,227,2.0,3.0,78,0.00,,,0.00,WUHU216DAVISVP2,2013-03-05 06:05:00,
2013-03-05 01:10:00,27.7,22.0,29.78,SW,225,1.3,3.0,79,0.00,,,0.00,WUHU216DAVISVP2,2013-03-05 06:10:00,
2013-03-05 01:15:00,27.7,22.3,29.78,WSW,242,0.0,2.0,80,0.00,,,0.00,WUHU216DAVISVP2,2013-03-05 06:15:00,
2013-03-05 01:20:00,27.5,22.1,29.78,WSW,242,0.0,2.0,80,0.00,,,0.00,WUHU216DAVISVP2,2013-03-05 06:20:00,
2013-03-05 01:25:00,27.4,21.8,29.78,WSW,242,0.0,2.0,79,0.00,,,0.00,WUHU216DAVISVP2,2013-03-05 06:25:00,
2013-03-05 01:30:00,27.3,21.7,29.78,WSW,242,0.0,2.0,79,0.00,,,0.00,WUHU216DAVISVP2,2013-03-05 06:30:00,
2013-03-05 01:35:00,27.2,21.9,29.78,SW,228,1.0,3.0,80,0.00,,,0.00,WUHU216DAVISVP2,2013-03-05 06:35:00,
2013-03-05 01:40:00,27.1,21.8,29.78,SW,228,0.0,3.0,80,0.00,,,0.00,WUHU216DAVISVP2,2013-03-05 06:40:00,
2013-03-05 01:45:00,27.1,21.8,29.78,WSW,251,1.3,3.0,80,0.00,,,0.00,WUHU216DAVISVP2,2013-03-05 06:45:00,
2013-03-05 01:50:00,27.2,21.9,29.78,South,189,2.0,3.0,80,0.00,,,0.00,WUHU216DAVISVP2,2013-03-05 06:50:00,
2013-03-05 01:55:00,27.2,21.9,29.78,SSW,200,1.4,3.0,80,0.00,,,0.00,WUHU216DAVISVP2,2013-03-05 06:55:00,
2013-03-05 02:00:00,27.2,21.9,29.79,WSW,238,1.0,3.0,80,0.00,,,0.00,WUHU216DAVISVP2,2013-03-05 07:00:00,
2013-03-05 02:05:00,27.4,22.0,29.79,WNW,291,3.0,3.0,80,0.00,,,0.00,WUHU216DAVISVP2,2013-03-05 07:05:00,
2013-03-05 02:10:00,27.5,22.1,29.79,SSW,192,1.0,4.0,80,0.00,,,0.00,WUHU216DAVISVP2,2013-03-05 07:10:00,
2013-03-05 02:15:00,27.5,22.1,29.79,SE,126,1.5,4.0,80,0.00,,,0.00,WUHU216DAVISVP2,2013-03-05 07:15:00,
2013-03-05 02:20:00,27.5,22.1,29.79,South,173,0.0,4.0,80,0.00,,,0.00,WUHU216DAVISVP2,2013-03-05 07:20:00,
2013-03-05 02:25:00,27.5,22.1,29.79,West,276,1.4,3.0,80,0.00,,,0.00,WUHU216DAVISVP2,2013-03-05 07:25:00,
2013-03-05 02:30:00,27.5,22.1,29.80,SW,222,1.6,4.0,80,0.00,,,0.00,WUHU216DAVISVP2,2013-03-05 07:30:00,
2013-03-05 02:35:00,27.5,22.1,29.80,WSW,246,1.0,4.0,80,0.00,,,0.00,WUHU216DAVISVP2,2013-03-05 07:35:00,
2013-03-05 02:40:00,27.2,21.9,29.80,SW,233,2.0,4.0,80,0.00,,,0.00,WUHU216DAVISVP2,2013-03-05 07:40:00,
2013-03-05 02:45:00,27.1,22.0,29.80,SW,229,1.1,4.0,81,0.00,,,0.00,WUHU216DAVISVP2,2013-03-05 07:45:00,
2013-03-05 02:50:00,26.9,21.8,29.80,SW,228,1.0,3.0,81,0.00,,,0.00,WUHU216DAVISVP2,2013-03-05 07:50:00,
2013-03-05 02:55:00,26.8,21.7,29.81,SW,228,1.4,3.0,81,0.00,,,0.00,WUHU216DAVISVP2,2013-03-05 07:55:00,
2013-03-05 03:00:00,26.6,21.6,29.80,SW,228,0.0,2.0,81,0.00,,,0.00,WUHU216DAVISVP2,2013-03-05 08:00:00,
2013-03-05 03:05:00,26.4,21.6,29.81,SW,228,0.0,2.0,82,0.00,,,0.00,WUHU216DAVISVP2,2013-03-05 08:05:00,
2013-03-05 03:10:00,26.2,21.4,29.81,SW,228,0.0,2.0,82,0.00,,,0.00,WUHU216DAVISVP2,2013-03-05 08:10:00,
2013-03-05 03:15:00,25.9,21.4,29.81,SW,228,1.0,2.0,83,0.00,,,0.00,WUHU216DAVISVP2,2013-03-05 08:15:00,
2013-03-05 03:20:00,25.9,21.4,29.81,SW,228,1.3,2.0,83,0.00,,,0.00,WUHU216DAVISVP2,2013-03-05 08:20:00,
2013-03-05 03:25:00,25.9,21.4,29.82,SW,228,0.0,2.0,83,0.00,,,0.00,WUHU216DAVISVP2,2013-03-05 08:25:00,
2013-03-05 03:30:00,25.7,21.5,29.82,SW,228,0.0,2.0,84,0.00,,,0.00,WUHU216DAVISVP2,2013-03-05 08:30:00,
2013-03-05 03:35:00,25.7,21.5,29.82,SSW,206,1.0,2.0,84,0.00,,,0.00,WUHU216DAVISVP2,2013-03-05 08:35:00,
2013-03-05 03:40:00,25.8,21.3,29.82,SSW,206,1.3,2.0,83,0.00,,,0.00,WUHU216DAVISVP2,2013-03-05 08:40:00,
2013-03-05 03:45:00,25.9,21.4,29.83,SSW,200,0.0,2.0,83,0.00,,,0.00,WUHU216DAVISVP2,2013-03-05 08:45:00,
2013-03-05 03:50:00,26.0,21.5,29.83,ENE,78,1.0,4.0,83,0.00,,,0.00,WUHU216DAVISVP2,2013-03-05 08:50:00,
2013-03-05 03:55:00,26.0,21.5,29.83,ENE,78,0.0,4.0,83,0.00,,,0.00,WUHU216DAVISVP2,2013-03-05 08:55:00,
2013-03-05 04:00:00,26.0,21.5,29.83,ENE,78,0.0,4.0,83,0.00,,,0.00,WUHU216DAVISVP2,2013-03-05 09:00:00,
2013-03-05 04:05:00,25.8,21.6,29.83,ENE,78,1.0,4.0,84,0.00,,,0.00,WUHU216DAVISVP2,2013-03-05 09:05:00,
2013-03-05 04:10:00,25.6,21.4,29.84,ENE,78,1.0,2.0,84,0.00,,,0.00,WUHU216DAVISVP2,2013-03-05 09:10:00,
2013-03-05 04:15:00,25.5,21.6,29.84,ENE,78,0.0,2.0,85,0.00,,,0.00,WUHU216DAVISVP2,2013-03-05 09:15:00,
2013-03-05 04:20:00,25.5,21.3,29.84,ENE,78,0.0,2.0,84,0.00,,,0.00,WUHU216DAVISVP2,2013-03-05 09:20:00,
2013-03-05 04:25:00,25.6,21.4,29.84,ENE,78,1.0,4.0,84,0.00,,,0.00,WUHU216DAVISVP2,2013-03-05 09:25:00,
2013-03-05 04:30:00,25.7,21.5,29.84,ENE,77,1.0,4.0,84,0.00,,,0.00,WUHU216DAVISVP2,2013-03-05 09:30:00,
2013-03-05 04:35:00,25.8,21.6,29.85,ENE,77,0.0,4.0,84,0.00,,,0.00,WUHU216DAVISVP2,2013-03-05 09:35:00,
2013-03-05 04:40:00,26.0,21.8,29.85,ENE,77,0.0,4.0,84,0.00,,,0.00,WUHU216DAVISVP2,2013-03-05 09:40:00,
2013-03-05 04:45:00,26.1,21.9,29.85,ENE,77,0.0,2.0,84,0.00,,,0.00,WUHU216DAVISVP2,2013-03-05 09:45:00,
2013-03-05 04:50:00,26.4,22.2,29.85,WSW,257,1.4,3.0,84,0.00,,,0.00,WUHU216DAVISVP2,2013-03-05 09:50:00,
2013-03-05 04:55:00,26.5,22.3,29.86,WSW,237,1.3,3.0,84,0.00,,,0.00,WUHU216DAVISVP2,2013-03-05 09:55:00,
2013-03-05 05:00:00,26.7,22.2,29.86,SW,234,0.0,3.0,83,0.00,,,0.00,WUHU216DAVISVP2,2013-03-05 10:00:00,
2013-03-05 05:05:00,26.9,22.4,29.86,West,274,1.0,3.0,83,0.00,,,0.00,WUHU216DAVISVP2,2013-03-05 10:05:00,
2013-03-05 05:10:00,27.1,22.6,29.86,West,274,0.0,2.0,83,0.00,,,0.00,WUHU216DAVISVP2,2013-03-05 10:10:00,
2013-03-05 05:15:00,27.3,22.5,29.86,West,274,0.0,1.0,82,0.00,,,0.00,WUHU216DAVISVP2,2013-03-05 10:15:00,
2013-03-05 05:20:00,27.4,22.6,29.87,West,276,0.0,2.0,82,0.00,,,0.00,WUHU216DAVISVP2,2013-03-05 10:20:00,
2013-03-05 05:25:00,27.6,22.8,29.87,West,275,1.0,2.0,82,0.00,,,0.00,WUHU216DAVISVP2,2013-03-05 10:25:00,
2013-03-05 05:30:00,27.6,22.8,29.87,West,275,1.0,2.0,82,0.00,,,0.00,WUHU216DAVISVP2,2013-03-05 10:30:00,
2013-03-05 05:35:00,27.8,22.7,29.87,West,280,1.8,3.0,81,0.00,,,0.00,WUHU216DAVISVP2,2013-03-05 10:35:00,
2013-03-05 05:40:00,28.0,22.9,29.87,NNW,344,1.0,3.0,81,0.00,,,0.00,WUHU216DAVISVP2,2013-03-05 10:40:00,
2013-03-05 05:45:00,28.1,23.0,29.87,NNW,343,1.0,3.0,81,0.00,,,0.00,WUHU216DAVISVP2,2013-03-05 10:45:00,
2013-03-05 05:50:00,28.1,23.3,29.87,NNW,343,0.0,3.0,82,0.00,,,0.00,WUHU216DAVISVP2,2013-03-05 10:50:00,
2013-03-05 05:55:00,28.1,23.3,29.87,NNW,343,0.0,3.0,82,0.00,,,0.00,WUHU216DAVISVP2,2013-03-05 10:55:00,
2013-03-05 06:00:00,28.0,22.9,29.88,North,0,1.5,2.0,81,0.00,,,0.00,WUHU216DAVISVP2,2013-03-05 11:00:00,
2013-03-05 06:05:00,28.1,23.0,29.88,North,360,0.0,2.0,81,0.00,,,0.00,WUHU216DAVISVP2,2013-03-05 11:05:00,
2013-03-05 06:10:00,28.1,23.3,29.88,North,360,0.0,2.0,82,0.00,,,0.00,WUHU216DAVISVP2,2013-03-05 11:10:00,
2013-03-05 06:15:00,28.3,23.2,29.89,NW,310,0.0,2.0,81,0.00,,,0.00,WUHU216DAVISVP2,2013-03-05 11:15:00,
2013-03-05 06:20:00,28.4,23.3,29.89,North,5,1.0,4.0,81,0.00,,,0.00,WUHU216DAVISVP2,2013-03-05 11:20:00,
2013-03-05 06:25:00,28.6,23.5,29.89,North,11,1.3,4.0,81,0.00,,,0.00,WUHU216DAVISVP2,2013-03-05 11:25:00,
2013-03-05 06:30:00,28.8,23.4,29.89,NNE,13,2.0,4.0,80,0.00,,,0.00,WUHU216DAVISVP2,2013-03-05 11:30:00,
2013-03-05 06:35:00,29.0,23.6,29.89,North,9,1.0,4.0,80,0.00,,,0.00,WUHU216DAVISVP2,2013-03-05 11:35:00,
2013-03-05 06:40:00,29.1,23.7,29.89,NNW,340,1.0,4.0,80,0.00,,,0.00,WUHU216DAVISVP2,2013-03-05 11:40:00,
2013-03-05 06:45:00,29.2,23.8,29.89,NNW,338,2.0,4.0,80,0.00,,,0.00,WUHU216DAVISVP2,2013-03-05 11:45:00,
2013-03-05 06:50:00,29.4,23.7,29.90,NNW,340,1.0,4.0,79,0.00,,,0.00,WUHU216DAVISVP2,2013-03-05 11:50:00,
2013-03-05 06:55:00,29.5,23.8,29.90,NNW,340,0.0,4.0,79,0.00,,,0.00,WUHU216DAVISVP2,2013-03-05 11:55:00,
2013-03-05 07:00:00,29.6,23.6,29.90,NNW,344,3.0,3.0,78,0.00,,,0.00,WUHU216DAVISVP2,2013-03-05 12:00:00,
2013-03-05 07:05:00,30.0,24.0,29.90,North,5,1.3,4.0,78,0.00,,,0.00,WUHU216DAVISVP2,2013-03-05 12:05:00,
2013-03-05 07:10:00,30.3,24.3,29.91,North,355,3.0,4.0,78,0.00,,,0.00,WUHU216DAVISVP2,2013-03-05 12:10:00,
2013-03-05 07:15:00,30.5,24.2,29.91,NW,321,1.4,7.0,77,0.00,,,0.00,WUHU216DAVISVP2,2013-03-05 12:15:00,
2013-03-05 07:20:00,30.7,24.4,29.91,NNW,329,3.0,7.0,77,0.00,,,0.00,WUHU216DAVISVP2,2013-03-05 12:20:00,
2013-03-05 07:25:00,30.8,24.2,29.91,North,354,2.1,7.0,76,0.00,,,0.00,WUHU216DAVISVP2,2013-03-05 12:25:00,
2013-03-05 07:30:00,30.8,24.2,29.92,NNW,335,2.0,7.0,76,0.00,,,0.00,WUHU216DAVISVP2,2013-03-05 12:30:00,
2013-03-05 07:35:00,30.8,24.2,29.92,North,359,1.9,7.0,76,0.00,,,0.00,WUHU216DAVISVP2,2013-03-05 12:35:00,
2013-03-05 07:40:00,30.8,24.5,29.92,NNE,18,1.2,6.0,77,0.00,,,0.00,WUHU216DAVISVP2,2013-03-05 12:40:00,
2013-03-05 07:45:00,30.9,24.6,29.92,NNW,342,1.8,11.0,77,0.00,,,0.00,WUHU216DAVISVP2,2013-03-05 12:45:00,
2013-03-05 07:50:00,31.0,24.4,29.92,NNE,21,3.3,11.0,76,0.00,,,0.00,WUHU216DAVISVP2,2013-03-05 12:50:00,
2013-03-05 07:55:00,31.1,24.8,29.92,NW,305,1.0,11.0,77,0.00,,,0.00,WUHU216DAVISVP2,2013-03-05 12:55:00,
2013-03-05 08:00:00,31.2,24.5,29.92,NNE,19,2.0,6.0,76,0.00,,,0.00,WUHU216DAVISVP2,2013-03-05 13:00:00,
2013-03-05 08:05:00,31.4,24.7,29.92,NNW,348,2.4,7.0,76,0.00,,,0.00,WUHU216DAVISVP2,2013-03-05 13:05:00,
2013-03-05 08:10:00,31.5,24.8,29.93,North,349,2.1,7.0,76,0.00,,,0.00,WUHU216DAVISVP2,2013-03-05 13:10:00,
2013-03-05 08:15:00,31.7,25.0,29.93,North,355,6.0,7.0,76,0.00,,,0.00,WUHU216DAVISVP2,2013-03-05 13:15:00,
2013-03-05 08:20:00,31.8,24.8,29.93,North,355,3.0,7.0,75,0.00,,,0.00,WUHU216DAVISVP2,2013-03-05 13:20:00,
2013-03-05 08:25:00,31.9,25.2,29.93,NNW,337,2.5,7.0,76,0.00,,,0.00,WUHU216DAVISVP2,2013-03-05 13:25:00,
2013-03-05 08:30:00,32.1,25.1,29.93,North,353,1.8,9.0,75,0.00,,,0.00,WUHU216DAVISVP2,2013-03-05 13:30:00,
2013-03-05 08:35:00,32.3,25.0,29.93,North,352,3.4,9.0,74,0.00,,,0.00,WUHU216DAVISVP2,2013-03-05 13:35:00,
2013-03-05 08:40:00,32.5,25.2,29.93,NNE,23,1.4,9.0,74,0.00,,,0.00,WUHU216DAVISVP2,2013-03-05 13:40:00,
2013-03-05 08:45:00,32.7,25.4,29.94,NNW,330,3.0,9.0,74,0.00,,,0.00,WUHU216DAVISVP2,2013-03-05 13:45:00,
2013-03-05 08:50:00,32.9,25.2,29.94,NW,316,2.9,7.0,73,0.00,,,0.00,WUHU216DAVISVP2,2013-03-05 13:50:00,
2013-03-05 08:55:00,33.1,25.4,29.94,NNE,25,2.0,7.0,73,0.00,,,0.00,WUHU216DAVISVP2,2013-03-05 13:55:00,
2013-03-05 09:00:00,33.3,25.6,29.94,NNW,327,1.7,7.0,73,0.00,,,0.00,WUHU216DAVISVP2,2013-03-05 14:00:00,
2013-03-05 09:05:00,33.6,25.9,29.94,WSW,237,1.5,7.0,73,0.00,,,0.00,WUHU216DAVISVP2,2013-03-05 14:05:00,
2013-03-05 09:10:00,33.9,26.2,29.94,North,7,1.8,4.0,73,0.00,,,0.00,WUHU216DAVISVP2,2013-03-05 14:10:00,
2013-03-05 09:15:00,34.0,26.0,29.95,WNW,296,4.0,4.0,72,0.00,,,0.00,WUHU216DAVISVP2,2013-03-05 14:15:00,
2013-03-05 09:20:00,34.1,26.1,29.95,North,9,1.4,5.0,72,0.00,,,0.00,WUHU216DAVISVP2,2013-03-05 14:20:00,
2013-03-05 09:25:00,34.2,25.8,29.95,NNW,335,3.8,8.0,71,0.00,,,0.00,WUHU216DAVISVP2,2013-03-05 14:25:00,
2013-03-05 09:30:00,34.4,26.0,29.95,NNW,338,2.6,8.0,71,0.00,,,0.00,WUHU216DAVISVP2,2013-03-05 14:30:00,
2013-03-05 09:35:00,34.8,26.4,29.94,NW,306,2.0,8.0,71,0.00,,,0.00,WUHU216DAVISVP2,2013-03-05 14:35:00,
2013-03-05 09:40:00,35.3,26.6,29.94,NW,304,2.9,8.0,70,0.00,,,0.00,WUHU216DAVISVP2,2013-03-05 14:40:00,
2013-03-05 09:45:00,35.6,26.5,29.94,NNW,348,6.0,8.0,69,0.00,,,0.00,WUHU216DAVISVP2,2013-03-05 14:45:00,
2013-03-05 09:50:00,35.6,26.5,29.94,NNW,336,2.2,8.0,69,0.00,,,0.00,WUHU216DAVISVP2,2013-03-05 14:50:00,
2013-03-05 09:55:00,35.8,26.7,29.95,WNW,299,3.0,9.0,69,0.00,,,0.00,WUHU216DAVISVP2,2013-03-05 14:55:00,
2013-03-05 10:00:00,35.9,26.4,29.95,WNW,293,5.0,9.0,68,0.00,,,0.00,WUHU216DAVISVP2,2013-03-05 15:00:00,
2013-03-05 10:05:00,36.0,26.5,29.94,WNW,298,5.0,9.0,68,0.00,,,0.00,WUHU216DAVISVP2,2013-03-05 15:05:00,
2013-03-05 10:10:00,36.0,26.5,29.94,North,7,3.4,8.0,68,0.00,,,0.00,WUHU216DAVISVP2,2013-03-05 15:10:00,
2013-03-05 10:15:00,36.2,27.1,29.94,North,351,2.0,8.0,69,0.00,,,0.00,WUHU216DAVISVP2,2013-03-05 15:15:00,
2013-03-05 10:20:00,36.5,27.0,29.94,NW,307,2.0,8.0,68,0.00,,,0.00,WUHU216DAVISVP2,2013-03-05 15:20:00,
2013-03-05 10:25:00,36.7,27.2,29.94,NNW,342,2.0,8.0,68,0.00,,,0.00,WUHU216DAVISVP2,2013-03-05 15:25:00,
2013-03-05 10:30:00,37.0,27.1,29.94,NNE,21,2.4,8.0,67,0.00,,,0.00,WUHU216DAVISVP2,2013-03-05 15:30:00,
2013-03-05 10:35:00,37.5,27.6,29.94,NNW,336,3.0,8.0,67,0.00,,,0.00,WUHU216DAVISVP2,2013-03-05 15:35:00,
2013-03-05 10:40:00,37.6,27.3,29.94,NW,310,3.0,8.0,66,0.00,,,0.00,WUHU216DAVISVP2,2013-03-05 15:40:00,
2013-03-05 10:45:00,37.7,27.4,29.94,WNW,296,1.5,7.0,66,0.00,,,0.00,WUHU216DAVISVP2,2013-03-05 15:45:00,
2013-03-05 10:50:00,38.0,27.4,29.94,NW,325,1.8,7.0,65,0.00,,,0.00,WUHU216DAVISVP2,2013-03-05 15:50:00,
2013-03-05 10:55:00,38.2,27.5,29.93,NNW,340,1.9,7.0,65,0.00,,,0.00,WUHU216DAVISVP2,2013-03-05 15:55:00,
2013-03-05 11:00:00,38.2,27.9,29.93,WNW,283,4.0,6.0,66,0.00,,,0.00,WUHU216DAVISVP2,2013-03-05 16:00:00,
2013-03-05 11:05:00,38.8,27.7,29.93,North,358,4.1,8.0,64,0.00,,,0.00,WUHU216DAVISVP2,2013-03-05 16:05:00,
2013-03-05 11:10:00,39.4,28.3,29.93,North,355,3.0,10.0,64,0.00,,,0.00,WUHU216DAVISVP2,2013-03-05 16:10:00,
2013-03-05 11:15:00,39.7,28.2,29.93,NNE,13,4.0,10.0,63,0.00,,,0.00,WUHU216DAVISVP2,2013-03-05 16:15:00,
2013-03-05 11:20:00,40.0,28.5,29.93,North,355,5.0,10.0,63,0.00,,,0.00,WUHU216DAVISVP2,2013-03-05 16:20:00,
2013-03-05 11:25:00,40.2,28.3,29.93,NNE,22,3.1,10.0,62,0.00,,,0.00,WUHU216DAVISVP2,2013-03-05 16:25:00,
2013-03-05 11:30:00,40.7,28.8,29.93,NE,56,4.1,9.0,62,0.00,,,0.00,WUHU216DAVISVP2,2013-03-05 16:30:00,
2013-03-05 11:35:00,41.1,28.7,29.93,North,360,7.0,9.0,61,0.00,,,0.00,WUHU216DAVISVP2,2013-03-05 16:35:00,
2013-03-05 11:40:00,41.1,28.3,29.93,North,352,3.4,7.0,60,0.00,,,0.00,WUHU216DAVISVP2,2013-03-05 16:40:00,
2013-03-05 11:45:00,41.3,28.5,29.93,North,11,3.9,9.0,60,0.00,,,0.00,WUHU216DAVISVP2,2013-03-05 16:45:00,
2013-03-05 11:50:00,41.5,28.7,29.93,North,5,6.0,9.0,60,0.00,,,0.00,WUHU216DAVISVP2,2013-03-05 16:50:00,
2013-03-05 11:55:00,41.6,28.4,29.94,NE,35,4.4,10.0,59,0.00,,,0.00,WUHU216DAVISVP2,2013-03-05 16:55:00,
2013-03-05 12:00:00,42.0,28.8,29.94,NE,39,5.0,10.0,59,0.00,,,0.00,WUHU216DAVISVP2,2013-03-05 17:00:00,
2013-03-05 12:05:00,42.0,28.8,29.94,North,10,6.0,10.0,59,0.00,,,0.00,WUHU216DAVISVP2,2013-03-05 17:05:00,
2013-03-05 12:10:00,42.0,28.3,29.94,ENE,67,9.0,10.0,58,0.00,,,0.00,WUHU216DAVISVP2,2013-03-05 17:10:00,
2013-03-05 12:15:00,42.2,28.5,29.94,North,359,3.5,13.0,58,0.00,,,0.00,WUHU216DAVISVP2,2013-03-05 17:15:00,
2013-03-05 12:20:00,42.5,28.8,29.94,NE,49,4.0,13.0,58,0.00,,,0.00,WUHU216DAVISVP2,2013-03-05 17:20:00,
2013-03-05 12:25:00,42.9,28.8,29.94,North,353,2.9,13.0,57,0.00,,,0.00,WUHU216DAVISVP2,2013-03-05 17:25:00,
2013-03-05 12:30:00,43.1,28.9,29.94,NNE,14,2.6,11.0,57,0.00,,,0.00,WUHU216DAVISVP2,2013-03-05 17:30:00,
2013-03-05 12:35:00,43.4,28.8,29.94,NNE,31,4.6,11.0,56,0.00,,,0.00,WUHU216DAVISVP2,2013-03-05 17:35:00,
2013-03-05 12:40:00,43.3,28.7,29.94,NNE,15,5.0,11.0,56,0.00,,,0.00,WUHU216DAVISVP2,2013-03-05 17:40:00,
2013-03-05 12:45:00,43.1,28.9,29.94,ENE,57,7.0,8.0,57,0.00,,,0.00,WUHU216DAVISVP2,2013-03-05 17:45:00,
2013-03-05 12:50:00,43.4,28.8,29.93,NNW,340,4.0,8.0,56,0.00,,,0.00,WUHU216DAVISVP2,2013-03-05 17:50:00,
2013-03-05 12:55:00,44.0,28.9,29.94,NE,40,4.0,7.0,55,0.00,,,0.00,WUHU216DAVISVP2,2013-03-05 17:55:00,
2013-03-05 13:00:00,44.2,28.6,29.93,NW,326,4.6,11.0,54,0.00,,,0.00,WUHU216DAVISVP2,2013-03-05 18:00:00,
2013-03-05 13:05:00,44.4,28.8,29.94,NE,55,3.7,11.0,54,0.00,,,0.00,WUHU216DAVISVP2,2013-03-05 18:05:00,
2013-03-05 13:10:00,44.2,28.6,29.94,East,94,1.0,11.0,54,0.00,,,0.00,WUHU216DAVISVP2,2013-03-05 18:10:00,
2013-03-05 13:15:00,44.0,28.4,29.94,NE,53,5.5,11.0,54,0.00,,,0.00,WUHU216DAVISVP2,2013-03-05 18:15:00,
2013-03-05 13:20:00,43.9,28.8,29.94,North,3,3.4,9.0,55,0.00,,,0.00,WUHU216DAVISVP2,2013-03-05 18:20:00,
2013-03-05 13:25:00,43.7,29.1,29.94,North,355,4.0,9.0,56,0.00,,,0.00,WUHU216DAVISVP2,2013-03-05 18:25:00,
2013-03-05 13:30:00,43.7,29.1,29.94,NE,38,4.5,9.0,56,0.00,,,0.00,WUHU216DAVISVP2,2013-03-05 18:30:00,
2013-03-05 13:35:00,43.6,29.0,29.94,North,360,5.0,7.0,56,0.00,,,0.00,WUHU216DAVISVP2,2013-03-05 18:35:00,
2013-03-05 13:40:00,43.6,29.0,29.95,NE,34,3.0,7.0,56,0.00,,,0.00,WUHU216DAVISVP2,2013-03-05 18:40:00,
2013-03-05 13:45:00,43.6,29.0,29.95,NNW,347,3.2,7.0,56,0.00,,,0.00,WUHU216DAVISVP2,2013-03-05 18:45:00,
2013-03-05 13:50:00,43.6,29.0,29.95,North,11,3.0,7.0,56,0.00,,,0.00,WUHU216DAVISVP2,2013-03-05 18:50:00,
2013-03-05 13:55:00,43.6,28.5,29.95,North,11,5.0,9.0,55,0.00,,,0.00,WUHU216DAVISVP2,2013-03-05 18:55:00,
2013-03-05 14:00:00,43.4,28.3,29.95,NNW,343,4.5,9.0,55,0.00,,,0.00,WUHU216DAVISVP2,2013-03-05 19:00:00,
2013-03-05 14:05:00,43.5,28.9,29.95,North,349,2.0,9.0,56,0.00,,,0.00,WUHU216DAVISVP2,2013-03-05 19:05:00,
2013-03-05 14:10:00,43.5,28.9,29.95,NNE,15,1.0,9.0,56,0.00,,,0.00,WUHU216DAVISVP2,2013-03-05 19:10:00,
2013-03-05 14:15:00,43.6,29.0,29.95,NE,50,3.0,9.0,56,0.00,,,0.00,WUHU216DAVISVP2,2013-03-05 19:15:00,
2013-03-05 14:20:00,43.6,29.0,29.95,NE,42,1.2,4.0,56,0.00,,,0.00,WUHU216DAVISVP2,2013-03-05 19:20:00,
2013-03-05 14:25:00,43.7,29.1,29.95,NE,52,3.5,6.0,56,0.00,,,0.00,WUHU216DAVISVP2,2013-03-05 19:25:00,
2013-03-05 14:30:00,43.7,29.1,29.96,NNE,15,2.0,6.0,56,0.00,,,0.00,WUHU216DAVISVP2,2013-03-05 19:30:00,
2013-03-05 14:35:00,43.7,29.1,29.96,NNE,14,0.0,6.0,56,0.00,,,0.00,WUHU216DAVISVP2,2013-03-05 19:35:00,
2013-03-05 14:40:00,43.7,29.1,29.96,NNE,21,1.3,6.0,56,0.00,,,0.00,WUHU216DAVISVP2,2013-03-05 19:40:00,
2013-03-05 14:45:00,43.6,29.0,29.96,NE,46,3.0,5.0,56,0.00,,,0.00,WUHU216DAVISVP2,2013-03-05 19:45:00,
2013-03-05 14:50:00,43.4,29.2,29.96,North,358,2.1,5.0,57,0.00,,,0.00,WUHU216DAVISVP2,2013-03-05 19:50:00,
2013-03-05 14:55:00,43.4,29.2,29.96,NNW,348,2.3,5.0,57,0.00,,,0.00,WUHU216DAVISVP2,2013-03-05 19:55:00,
2013-03-05 15:00:00,43.4,29.7,29.96,NNE,15,2.0,5.0,58,0.00,,,0.00,WUHU216DAVISVP2,2013-03-05 20:00:00,
2013-03-05 15:05:00,43.4,29.2,29.96,NNE,15,1.0,5.0,57,0.00,,,0.00,WUHU216DAVISVP2,2013-03-05 20:05:00,
2013-03-05 15:10:00,43.4,29.2,29.97,NNE,15,0.0,4.0,57,0.00,,,0.00,WUHU216DAVISVP2,2013-03-05 20:10:00,
2013-03-05 15:15:00,43.5,29.8,29.96,North,351,3.0,4.0,58,0.00,,,0.00,WUHU216DAVISVP2,2013-03-05 20:15:00,
2013-03-05 15:20:00,43.5,29.3,29.97,North,356,1.6,4.0,57,0.00,,,0.00,WUHU216DAVISVP2,2013-03-05 20:20:00,
2013-03-05 15:25:00,43.5,29.3,29.97,North,5,1.9,4.0,57,0.00,,,0.00,WUHU216DAVISVP2,2013-03-05 20:25:00,
2013-03-05 15:30:00,43.4,29.2,29.97,NNW,348,3.0,4.0,57,0.00,,,0.00,WUHU216DAVISVP2,2013-03-05 20:30:00,
2013-03-05 15:35:00,43.4,29.2,29.97,NNE,13,2.0,4.0,57,0.00,,,0.00,WUHU216DAVISVP2,2013-03-05 20:35:00,
2013-03-05 15:40:00,43.4,29.2,29.97,North,7,2.2,4.0,57,0.00,,,0.00,WUHU216DAVISVP2,2013-03-05 20:40:00,
2013-03-05 15:45:00,43.3,29.1,29.97,North,5,0.0,4.0,57,0.00,,,0.00,WUHU216DAVISVP2,2013-03-05 20:45:00,
2013-03-05 15:50:00,43.3,29.1,29.98,North,359,2.5,5.0,57,0.00,,,0.00,WUHU216DAVISVP2,2013-03-05 20:50:00,
2013-03-05 15:55:00,43.2,29.5,29.98,North,355,1.0,5.0,58,0.00,,,0.00,WUHU216DAVISVP2,2013-03-05 20:55:00,
2013-03-05 16:00:00,43.1,29.8,29.98,North,355,1.2,5.0,59,0.00,,,0.00,WUHU216DAVISVP2,2013-03-05 21:00:00,
2013-03-05 16:05:00,43.0,29.7,29.98,NNW,338,1.7,5.0,59,0.00,,,0.00,WUHU216DAVISVP2,2013-03-05 21:05:00,
2013-03-05 16:10:00,43.0,29.3,29.98,North,5,3.2,5.0,58,0.00,,,0.00,WUHU216DAVISVP2,2013-03-05 21:10:00,
2013-03-05 16:15:00,43.0,29.3,29.98,NNE,14,1.0,5.0,58,0.00,,,0.00,WUHU216DAVISVP2,2013-03-05 21:15:00,
2013-03-05 16:20:00,43.0,28.8,29.98,North,7,1.9,5.0,57,0.00,,,0.00,WUHU216DAVISVP2,2013-03-05 21:20:00,
2013-03-05 16:25:00,43.0,29.3,29.99,North,5,0.0,5.0,58,0.00,,,0.00,WUHU216DAVISVP2,2013-03-05 21:25:00,
2013-03-05 16:30:00,42.8,29.5,29.99,North,5,0.0,3.0,59,0.00,,,0.00,WUHU216DAVISVP2,2013-03-05 21:30:00,
2013-03-05 16:35:00,42.7,29.4,29.99,North,5,1.5,3.0,59,0.00,,,0.00,WUHU216DAVISVP2,2013-03-05 21:35:00,
2013-03-05 16:40:00,42.5,29.2,29.99,North,5,1.0,2.0,59,0.00,,,0.00,WUHU216DAVISVP2,2013-03-05 21:40:00,
2013-03-05 16:45:00,42.4,29.6,29.99,NE,37,2.0,4.0,60,0.00,,,0.00,WUHU216DAVISVP2,2013-03-05 21:45:00,
2013-03-05 16:50:00,42.2,29.4,29.99,NE,41,0.0,4.0,60,0.00,,,0.00,WUHU216DAVISVP2,2013-03-05 21:50:00,
2013-03-05 16:55:00,42.0,29.6,29.99,NE,41,1.3,4.0,61,0.00,,,0.00,WUHU216DAVISVP2,2013-03-05 21:55:00,
2013-03-05 17:00:00,41.8,29.8,30.00,NE,41,0.0,4.0,62,0.00,,,0.00,WUHU216DAVISVP2,2013-03-05 22:00:00,
2013-03-05 17:05:00,41.5,29.9,30.00,NE,41,0.0,2.0,63,0.00,,,0.00,WUHU216DAVISVP2,2013-03-05 22:05:00,
2013-03-05 17:10:00,41.2,30.0,30.00,NE,41,0.0,2.0,64,0.00,,,0.00,WUHU216DAVISVP2,2013-03-05 22:10:00,
2013-03-05 17:15:00,41.0,29.4,30.00,NE,41,0.0,0.0,63,0.00,,,0.00,WUHU216DAVISVP2,2013-03-05 22:15:00,
2013-03-05 17:20:00,40.8,29.6,30.00,NE,41,1.0,1.0,64,0.00,,,0.00,WUHU216DAVISVP2,2013-03-05 22:20:00,
2013-03-05 17:25:00,40.7,29.5,30.01,North,6,1.9,3.0,64,0.00,,,0.00,WUHU216DAVISVP2,2013-03-05 22:25:00,
2013-03-05 17:30:00,40.5,29.7,30.01,North,5,1.5,3.0,65,0.00,,,0.00,WUHU216DAVISVP2,2013-03-05 22:30:00,
2013-03-05 17:35:00,40.3,29.9,30.01,NE,38,2.6,4.0,66,0.00,,,0.00,WUHU216DAVISVP2,2013-03-05 22:35:00,
2013-03-05 17:40:00,40.7,30.3,30.01,NNE,27,2.3,5.0,66,0.00,,,0.00,WUHU216DAVISVP2,2013-03-05 22:40:00,
2013-03-05 17:45:00,40.9,30.9,30.01,North,360,3.0,5.0,67,0.00,,,0.00,WUHU216DAVISVP2,2013-03-05 22:45:00,
2013-03-05 17:50:00,40.9,31.6,30.02,North,360,3.0,5.0,69,0.00,,,0.00,WUHU216DAVISVP2,2013-03-05 22:50:00,
2013-03-05 17:55:00,40.7,31.4,30.02,North,360,3.0,5.0,69,0.00,,,0.00,WUHU216DAVISVP2,2013-03-05 22:55:00,
2013-03-05 18:00:00,40.6,31.7,30.02,NNW,341,2.0,5.0,70,0.00,,,0.00,WUHU216DAVISVP2,2013-03-05 23:00:00,
2013-03-05 18:05:00,40.3,32.1,30.02,NNE,28,2.1,5.0,72,0.00,,,0.00,WUHU216DAVISVP2,2013-03-05 23:05:00,
2013-03-05 18:10:00,40.1,31.9,30.02,North,11,2.1,5.0,72,0.00,,,0.00,WUHU216DAVISVP2,2013-03-05 23:10:00,
2013-03-05 18:15:00,39.9,32.0,30.02,North,5,1.3,5.0,73,0.00,,,0.00,WUHU216DAVISVP2,2013-03-05 23:15:00,
2013-03-05 18:20:00,39.7,31.8,30.02,North,5,1.0,5.0,73,0.00,,,0.00,WUHU216DAVISVP2,2013-03-05 23:20:00,
2013-03-05 18:25:00,39.5,32.0,30.02,North,5,1.0,3.0,74,0.00,,,0.00,WUHU216DAVISVP2,2013-03-05 23:25:00,
2013-03-05 18:30:00,39.3,31.8,30.02,North,5,1.0,2.0,74,0.00,,,0.00,WUHU216DAVISVP2,2013-03-05 23:30:00,
2013-03-05 18:35:00,39.2,32.0,30.02,NNW,345,1.0,3.0,75,0.00,,,0.00,WUHU216DAVISVP2,2013-03-05 23:35:00,
2013-03-05 18:40:00,39.1,31.9,30.02,NNW,346,1.0,3.0,75,0.00,,,0.00,WUHU216DAVISVP2,2013-03-05 23:40:00,
2013-03-05 18:45:00,38.9,32.0,30.02,North,349,2.0,3.0,76,0.00,,,0.00,WUHU216DAVISVP2,2013-03-05 23:45:00,
2013-03-05 18:50:00,38.6,31.7,30.02,North,350,0.0,3.0,76,0.00,,,0.00,WUHU216DAVISVP2,2013-03-05 23:50:00,
2013-03-05 18:55:00,38.4,31.9,30.02,North,350,0.0,3.0,77,0.00,,,0.00,WUHU216DAVISVP2,2013-03-05 23:55:00,
2013-03-05 19:00:00,38.0,31.5,30.03,North,350,0.0,3.0,77,0.00,,,0.00,WUHU216DAVISVP2,2013-03-06 00:00:00,
2013-03-05 19:05:00,37.4,31.2,30.03,North,350,0.0,2.0,78,0.00,,,0.00,WUHU216DAVISVP2,2013-03-06 00:05:00,
2013-03-05 19:10:00,37.0,31.1,30.03,North,350,0.0,2.0,79,0.00,,,0.00,WUHU216DAVISVP2,2013-03-06 00:10:00,
2013-03-05 19:15:00,36.4,30.5,30.03,North,350,0.0,1.0,79,0.00,,,0.00,WUHU216DAVISVP2,2013-03-06 00:15:00,
2013-03-05 19:20:00,35.9,30.6,30.03,North,350,0.0,1.0,81,0.00,,,0.00,WUHU216DAVISVP2,2013-03-06 00:20:00,
2013-03-05 19:25:00,35.5,30.5,30.03,North,350,0.0,1.0,82,0.00,,,0.00,WUHU216DAVISVP2,2013-03-06 00:25:00,
2013-03-05 19:30:00,35.2,30.5,30.03,North,350,0.0,1.0,83,0.00,,,0.00,WUHU216DAVISVP2,2013-03-06 00:30:00,
2013-03-05 19:35:00,34.9,30.5,30.03,North,350,0.0,1.0,84,0.00,,,0.00,WUHU216DAVISVP2,2013-03-06 00:35:00,
2013-03-05 19:41:00,34.6,30.2,30.03,North,350,0.0,1.0,84,0.00,,,0.00,WUHU216DAVISVP2,2013-03-06 00:41:00,
2013-03-05 19:46:00,34.5,30.1,30.04,North,350,0.0,1.0,84,0.00,,,0.00,WUHU216DAVISVP2,2013-03-06 00:46:00,
2013-03-05 19:50:00,34.3,30.2,30.04,North,350,0.0,1.0,85,0.00,,,0.00,WUHU216DAVISVP2,2013-03-06 00:50:00,
2013-03-05 19:55:00,34.2,30.1,30.04,North,350,0.0,1.0,85,0.00,,,0.00,WUHU216DAVISVP2,2013-03-06 00:55:00,
2013-03-05 20:00:00,34.1,30.3,30.04,North,350,0.0,0.0,86,0.00,,,0.00,WUHU216DAVISVP2,2013-03-06 01:00:00,
2013-03-05 20:06:00,34.0,30.2,30.04,North,350,0.0,0.0,86,0.00,,,0.00,WUHU216DAVISVP2,2013-03-06 01:06:00,
2013-03-05 20:11:00,33.9,30.4,30.04,North,350,0.0,0.0,87,0.00,,,0.00,WUHU216DAVISVP2,2013-03-06 01:11:00,
2013-03-05 20:15:00,33.8,30.3,30.04,North,350,0.0,0.0,87,0.00,,,0.00,WUHU216DAVISVP2,2013-03-06 01:15:00,
2013-03-05 20:21:00,33.8,30.3,30.04,North,350,0.0,0.0,87,0.00,,,0.00,WUHU216DAVISVP2,2013-03-06 01:21:00,
2013-03-05 20:26:00,33.7,30.2,30.04,North,350,0.0,0.0,87,0.00,,,0.00,WUHU216DAVISVP2,2013-03-06 01:26:00,
2013-03-05 20:31:00,33.7,30.2,30.04,North,350,0.0,0.0,87,0.00,,,0.00,WUHU216DAVISVP2,2013-03-06 01:31:00,
2013-03-05 20:35:00,33.7,30.2,30.04,North,350,0.0,0.0,87,0.00,,,0.00,WUHU216DAVISVP2,2013-03-06 01:35:00,
2013-03-05 20:40:00,33.7,30.2,30.04,North,350,0.0,0.0,87,0.00,,,0.00,WUHU216DAVISVP2,2013-03-06 01:40:00,
2013-03-05 20:45:00,33.6,30.4,30.04,North,350,0.0,0.0,88,0.00,,,0.00,WUHU216DAVISVP2,2013-03-06 01:45:00,
2013-03-05 20:51:00,33.5,30.3,30.04,North,350,0.0,0.0,88,0.00,,,0.00,WUHU216DAVISVP2,2013-03-06 01:51:00,
2013-03-05 20:56:00,33.5,30.3,30.04,North,350,0.0,0.0,88,0.00,,,0.00,WUHU216DAVISVP2,2013-03-06 01:56:00,
2013-03-05 21:01:00,33.6,30.4,30.04,North,350,0.0,0.0,88,0.00,,,0.00,WUHU216DAVISVP2,2013-03-06 02:01:00,
2013-03-05 21:06:00,33.5,30.3,30.04,North,350,0.0,0.0,88,0.00,,,0.00,WUHU216DAVISVP2,2013-03-06 02:06:00,
2013-03-05 21:11:00,33.4,30.2,30.04,North,350,0.0,0.0,88,0.00,,,0.00,WUHU216DAVISVP2,2013-03-06 02:11:00,
2013-03-05 21:16:00,33.5,30.6,30.04,North,350,0.0,0.0,89,0.00,,,0.00,WUHU216DAVISVP2,2013-03-06 02:16:00,
2013-03-05 21:21:00,33.5,30.6,30.04,North,350,0.0,0.0,89,0.00,,,0.00,WUHU216DAVISVP2,2013-03-06 02:21:00,
2013-03-05 21:26:00,33.5,30.6,30.04,North,350,0.0,1.0,89,0.00,,,0.00,WUHU216DAVISVP2,2013-03-06 02:26:00,
2013-03-05 21:31:00,33.4,30.2,30.04,North,350,0.0,1.0,88,0.00,,,0.00,WUHU216DAVISVP2,2013-03-06 02:31:00,
2013-03-05 21:36:00,33.3,30.1,30.04,North,350,0.0,1.0,88,0.00,,,0.00,WUHU216DAVISVP2,2013-03-06 02:36:00,
2013-03-05 21:41:00,33.3,30.1,30.04,North,350,0.0,0.0,88,0.00,,,0.00,WUHU216DAVISVP2,2013-03-06 02:41:00,
2013-03-05 21:46:00,33.3,30.1,30.04,North,350,0.0,0.0,88,0.00,,,0.00,WUHU216DAVISVP2,2013-03-06 02:46:00,
2013-03-05 21:51:00,33.3,30.4,30.04,North,350,0.0,0.0,89,0.00,,,0.00,WUHU216DAVISVP2,2013-03-06 02:51:00,
2013-03-05 21:56:00,33.3,30.4,30.04,North,350,0.0,0.0,89,0.00,,,0.00,WUHU216DAVISVP2,2013-03-06 02:56:00,
2013-03-05 22:01:00,33.3,30.6,30.04,North,350,0.0,0.0,90,0.00,,,0.00,WUHU216DAVISVP2,2013-03-06 03:01:00,
2013-03-05 22:06:00,33.2,30.3,30.04,North,350,0.0,0.0,89,0.00,,,0.00,WUHU216DAVISVP2,2013-03-06 03:06:00,
2013-03-05 22:11:00,33.2,30.3,30.04,North,350,0.0,0.0,89,0.00,,,0.00,WUHU216DAVISVP2,2013-03-06 03:11:00,
2013-03-05 22:16:00,33.2,30.5,30.04,North,350,0.0,0.0,90,0.00,,,0.00,WUHU216DAVISVP2,2013-03-06 03:16:00,
2013-03-05 22:21:00,33.1,30.4,30.04,North,350,0.0,0.0,90,0.00,,,0.00,WUHU216DAVISVP2,2013-03-06 03:21:00,
2013-03-05 22:26:00,33.1,30.4,30.05,North,350,0.0,0.0,90,0.00,,,0.00,WUHU216DAVISVP2,2013-03-06 03:26:00,
2013-03-05 22:31:00,33.1,30.4,30.05,North,350,0.0,0.0,90,0.00,,,0.00,WUHU216DAVISVP2,2013-03-06 03:31:00,
2013-03-05 22:36:00,33.1,30.4,30.05,North,350,0.0,0.0,90,0.00,,,0.00,WUHU216DAVISVP2,2013-03-06 03:36:00,
2013-03-05 22:41:00,33.0,30.3,30.05,North,350,0.0,0.0,90,0.00,,,0.00,WUHU216DAVISVP2,2013-03-06 03:41:00,
2013-03-05 22:46:00,32.9,30.2,30.05,North,350,0.0,0.0,90,0.00,,,0.00,WUHU216DAVISVP2,2013-03-06 03:46:00,
2013-03-05 22:51:00,32.9,30.2,30.05,North,350,0.0,0.0,90,0.00,,,0.00,WUHU216DAVISVP2,2013-03-06 03:51:00,
2013-03-05 22:56:00,32.9,30.2,30.05,North,350,0.0,0.0,90,0.00,,,0.00,WUHU216DAVISVP2,2013-03-06 03:56:00,
2013-03-05 23:01:00,32.9,30.2,30.05,North,350,0.0,0.0,90,0.00,,,0.00,WUHU216DAVISVP2,2013-03-06 04:01:00,
2013-03-05 23:06:00,32.8,30.1,30.06,North,350,0.0,0.0,90,0.00,,,0.00,WUHU216DAVISVP2,2013-03-06 04:06:00,
2013-03-05 23:11:00,32.9,30.5,30.06,North,350,0.0,0.0,91,0.00,,,0.00,WUHU216DAVISVP2,2013-03-06 04:11:00,
2013-03-05 23:16:00,32.8,30.4,30.06,North,350,0.0,0.0,91,0.00,,,0.00,WUHU216DAVISVP2,2013-03-06 04:16:00,
2013-03-05 23:21:00,32.8,30.4,30.06,North,350,0.0,0.0,91,0.00,,,0.00,WUHU216DAVISVP2,2013-03-06 04:21:00,
2013-03-05 23:26:00,32.8,30.4,30.06,North,350,0.0,0.0,91,0.00,,,0.00,WUHU216DAVISVP2,2013-03-06 04:26:00,
2013-03-05 23:31:00,32.8,30.4,30.06,North,350,0.0,0.0,91,0.00,,,0.00,WUHU216DAVISVP2,2013-03-06 04:31:00,
2013-03-05 23:36:00,32.8,30.4,30.07,North,350,0.0,0.0,91,0.00,,,0.00,WUHU216DAVISVP2,2013-03-06 04:36:00,
2013-03-05 23:41:00,32.8,30.4,30.07,North,350,0.0,0.0,91,0.00,,,0.00,WUHU216DAVISVP2,2013-03-06 04:41:00,
2013-03-05 23:46:00,32.9,30.5,30.06,North,350,0.0,0.0,91,0.00,,,0.00,WUHU216DAVISVP2,2013-03-06 04:46:00,
2013-03-05 23:51:00,32.8,30.4,30.06,North,350,0.0,0.0,91,0.00,,,0.00,WUHU216DAVISVP2,2013-03-06 04:51:00,
2013-03-05 23:56:00,32.8,30.4,30.07,North,350,0.0,0.0,91,0.00,,,0.00,WUHU216DAVISVP2,2013-03-06 04:56:00,